When you browse on this site, cookies collect data to enhance your experience and personalize the content and advertising you see.
Visit our Privacy Policy to learn more. By continuing to use the site, you agree to this use of cookies and data.
  • In Hungary
  • List of Countries
  • For 7 days
  • Water Temperature
  • Satellite Maps
  • Weather Map
  • News
  • Weather Widgets
  • user-avatar
    Login

    Hourly Weather Midlothian

    Today, 21 January, Monday

    Time Temperature Precipitation Wind Pressure Humidity
    00:00 -2°C° 0 mm 2 mps 743 mmHg 87%
    01:00 -2°C° 0 mm 2 mps 743 mmHg 86%
    02:00 -2°C° 0 mm 3 mps 742 mmHg 84%
    03:00 -2°C° 0 mm 3 mps 742 mmHg 83%
    04:00 -2°C° 0 mm 3 mps 742 mmHg 83%
    05:00 -2°C° 0 mm 3 mps 741 mmHg 83%
    06:00 -2°C° 0 mm 3 mps 741 mmHg 84%
    07:00 -2°C° 0 mm 3 mps 740 mmHg 83%
    08:00 -3°C° 0 mm 4 mps 740 mmHg 83%
    09:00 -2°C° 0 mm 4 mps 739 mmHg 82%
    10:00 -1°C° 0 mm 5 mps 738 mmHg 80%
    11:00 0°C° 0 mm 5 mps 737 mmHg 78%
    12:00 +1°C° 0 mm 6 mps 737 mmHg 76%
    13:00 +1°C° 0 mm 6 mps 735 mmHg 76%
    14:00 +1°C° 0 mm 6 mps 734 mmHg 76%
    15:00 +1°C° 0 mm 6 mps 733 mmHg 76%
    16:00 0°C° 0.1 mm 7 mps 731 mmHg 78%
    17:00 0°C° 0.1 mm 7 mps 729 mmHg 79%
    18:00 -1°C° 0.1 mm 8 mps 728 mmHg 81%
    19:00 0°C° 0.4 mm 8 mps 727 mmHg 84%
    20:00 0°C° 0.4 mm 7 mps 726 mmHg 86%
    21:00 0°C° 0.4 mm 7 mps 725 mmHg 89%
    22:00 -1°C° 0.5 mm 7 mps 725 mmHg 87%
    23:00 -1°C° 0.5 mm 6 mps 724 mmHg 86%

    Tomorrow, 22 January, Tuesday

    Time Temperature Precipitation Wind Pressure Humidity
    00:00 -1°C° 0.5 mm 5 mps 724 mmHg 85%
    01:00 -2°C° 0.1 mm 5 mps 723 mmHg 85%
    02:00 -2°C° 0.1 mm 5 mps 723 mmHg 85%
    03:00 -4°C° 0.1 mm 5 mps 723 mmHg 85%
    04:00 -4°C° 0 mm 6 mps 723 mmHg 84%
    05:00 -4°C° 0 mm 6 mps 723 mmHg 83%
    06:00 -4°C° 0 mm 6 mps 723 mmHg 83%
    07:00 -4°C° 0 mm 5 mps 723 mmHg 83%
    08:00 -5°C° 0 mm 5 mps 723 mmHg 84%
    09:00 -4°C° 0 mm 4 mps 723 mmHg 84%
    10:00 -3°C° 0 mm 4 mps 723 mmHg 82%
    11:00 -2°C° 0 mm 4 mps 723 mmHg 80%
    12:00 -1°C° 0 mm 4 mps 723 mmHg 78%
    13:00 -1°C° 0 mm 4 mps 723 mmHg 79%
    14:00 -1°C° 0 mm 3 mps 723 mmHg 80%
    15:00 -1°C° 0 mm 3 mps 723 mmHg 82%
    16:00 -2°C° 0 mm 3 mps 723 mmHg 84%
    17:00 -4°C° 0 mm 3 mps 724 mmHg 86%
    18:00 -5°C° 0 mm 3 mps 724 mmHg 89%
    19:00 -5°C° 0 mm 3 mps 724 mmHg 88%
    20:00 -5°C° 0 mm 3 mps 724 mmHg 88%
    21:00 -5°C° 0 mm 3 mps 725 mmHg 87%
    22:00 -5°C° 0 mm 3 mps 725 mmHg 86%
    23:00 -5°C° 0 mm 3 mps 725 mmHg 85%

    Day after tomorrow, 23 January, Wednesday

    Time Temperature Precipitation Wind Pressure Humidity
    00:00 -5°C° 0 mm 3 mps 725 mmHg 83%
    01:00 -5°C° 0 mm 3 mps 726 mmHg 84%
    02:00 -5°C° 0 mm 3 mps 726 mmHg 85%
    03:00 -5°C° 0 mm 3 mps 726 mmHg 86%
    04:00 -5°C° 0 mm 3 mps 727 mmHg 86%
    05:00 -5°C° 0 mm 3 mps 727 mmHg 85%
    06:00 -5°C° 0 mm 3 mps 727 mmHg 85%
    07:00 -5°C° 0 mm 3 mps 728 mmHg 84%
    08:00 -5°C° 0 mm 3 mps 728 mmHg 83%
    09:00 -4°C° 0 mm 2 mps 729 mmHg 82%
    10:00 -2°C° 0 mm 3 mps 729 mmHg 79%
    11:00 -1°C° 0 mm 3 mps 730 mmHg 76%
    12:00 0°C° 0 mm 3 mps 730 mmHg 73%
    13:00 0°C° 0 mm 3 mps 730 mmHg 75%
    14:00 +1°C° 0 mm 2 mps 731 mmHg 78%
    15:00 +1°C° 0 mm 2 mps 731 mmHg 81%
    16:00 -1°C° 0 mm 3 mps 731 mmHg 84%
    17:00 -2°C° 0 mm 3 mps 732 mmHg 87%
    18:00 -4°C° 0 mm 3 mps 732 mmHg 90%
    19:00 -4°C° 0 mm 3 mps 732 mmHg 90%
    20:00 -4°C° 0 mm 3 mps 733 mmHg 89%
    21:00 -4°C° 0 mm 3 mps 733 mmHg 89%
    22:00 -4°C° 0 mm 3 mps 733 mmHg 90%
    23:00 -4°C° 0 mm 3 mps 733 mmHg 90%

    24 January, Thursday

    Time Temperature Precipitation Wind Pressure Humidity
    00:00 -4°C° 0 mm 3 mps 734 mmHg 91%
    01:00 -2°C° 0 mm 3 mps 734 mmHg 91%
    02:00 -2°C° 0 mm 3 mps 734 mmHg 91%
    03:00 -2°C° 0 mm 3 mps 734 mmHg 91%
    04:00 -2°C° 0 mm 3 mps 734 mmHg 92%
    05:00 -2°C° 0 mm 3 mps 734 mmHg 92%
    06:00 -1°C° 0 mm 3 mps 733 mmHg 93%
    07:00 -2°C° 0.4 mm 4 mps 733 mmHg 93%
    08:00 -1°C° 0.4 mm 4 mps 733 mmHg 93%
    09:00 -1°C° 0.4 mm 4 mps 733 mmHg 94%
    10:00 0°C° 1 mm 5 mps 733 mmHg 94%
    11:00 +1°C° 1 mm 5 mps 733 mmHg 93%
    12:00 +1°C° 1 mm 6 mps 732 mmHg 93%
    13:00 +2°C° 0.4 mm 6 mps 732 mmHg 94%
    14:00 +3°C° 0.4 mm 6 mps 732 mmHg 95%
    15:00 +4°C° 0.4 mm 6 mps 731 mmHg 95%
    16:00 +4°C° 0.1 mm 6 mps 731 mmHg 95%
    17:00 +5°C° 0.1 mm 7 mps 731 mmHg 95%
    18:00 +5°C° 0.1 mm 7 mps 732 mmHg 94%
    19:00 +5°C° 0 mm 7 mps 732 mmHg 94%
    20:00 +5°C° 0 mm 7 mps 732 mmHg 93%
    21:00 +5°C° 0 mm 7 mps 732 mmHg 92%
    22:00 +5°C° 0 mm 8 mps 732 mmHg 93%
    23:00 +5°C° 0 mm 8 mps 732 mmHg 93%

    25 January, Friday

    Time Temperature Precipitation Wind Pressure Humidity
    00:00 +5°C° 0 mm 8 mps 732 mmHg 94%
    01:00 +5°C° 0 mm 8 mps 732 mmHg 93%
    02:00 +5°C° 0 mm 8 mps 732 mmHg 93%
    03:00 +5°C° 0 mm 7 mps 731 mmHg 93%
    04:00 +5°C° 0 mm 8 mps 731 mmHg 92%
    05:00 +6°C° 0 mm 8 mps 731 mmHg 92%
    06:00 +6°C° 0 mm 9 mps 730 mmHg 91%
    07:00 +6°C° 0 mm 9 mps 730 mmHg 91%
    08:00 +6°C° 0 mm 8 mps 730 mmHg 90%
    09:00 +6°C° 0 mm 8 mps 730 mmHg 90%
    10:00 +5°C° 0.2 mm 8 mps 730 mmHg 85%
    11:00 +4°C° 0.2 mm 8 mps 730 mmHg 80%
    12:00 +2°C° 0.2 mm 8 mps 730 mmHg 75%
    13:00 +2°C° 0 mm 8 mps 731 mmHg 75%
    14:00 +2°C° 0 mm 8 mps 731 mmHg 75%
    15:00 +1°C° 0 mm 8 mps 731 mmHg 74%
    16:00 +2°C° 0 mm 7 mps 731 mmHg 76%
    17:00 0°C° 0 mm 7 mps 731 mmHg 78%
    18:00 -1°C° 0 mm 7 mps 731 mmHg 80%
    19:00 -1°C° 0 mm 6 mps 731 mmHg 80%
    20:00 -1°C° 0 mm 6 mps 731 mmHg 81%
    21:00 -1°C° 0 mm 6 mps 731 mmHg 82%
    22:00 0°C° 0 mm 5 mps 731 mmHg 83%
    23:00 0°C° 0 mm 5 mps 731 mmHg 83%

    26 January, Saturday

    Time Temperature Precipitation Wind Pressure Humidity
    00:00 0°C° 0 mm 5 mps 731 mmHg 84%
    01:00 0°C° 0 mm 4 mps 730 mmHg 85%
    02:00 0°C° 0 mm 4 mps 729 mmHg 86%
    03:00 -1°C° 0 mm 4 mps 729 mmHg 87%
    04:00 0°C° 0 mm 3 mps 728 mmHg 88%
    05:00 +1°C° 0 mm 2 mps 727 mmHg 90%
    06:00 +2°C° 0 mm 1 mps 726 mmHg 91%
    07:00 +1°C° 0.3 mm 2 mps 725 mmHg 91%
    08:00 +1°C° 0.3 mm 2 mps 725 mmHg 90%
    09:00 +1°C° 0.3 mm 2 mps 724 mmHg 90%
    10:00 -1°C° 0.8 mm 4 mps 724 mmHg 91%
    11:00 0°C° 0.8 mm 5 mps 723 mmHg 92%
    12:00 -1°C° 0.8 mm 6 mps 723 mmHg 93%
    13:00 -2°C° 1.1 mm 7 mps 723 mmHg 92%
    14:00 -2°C° 1.1 mm 8 mps 723 mmHg 91%
    15:00 -2°C° 1.1 mm 8 mps 722 mmHg 90%
    16:00 -3°C° 0.6 mm 7 mps 723 mmHg 89%
    17:00 -3°C° 0.6 mm 6 mps 723 mmHg 89%
    18:00 -3°C° 0.6 mm 6 mps 724 mmHg 88%
    19:00 -2°C° 0.1 mm 5 mps 724 mmHg 88%
    20:00 -2°C° 0.1 mm 5 mps 724 mmHg 87%
    21:00 -2°C° 0.1 mm 5 mps 724 mmHg 87%
    22:00 -2°C° 0.1 mm 5 mps 725 mmHg 87%
    23:00 -2°C° 0.1 mm 5 mps 725 mmHg 88%
    Show more